CAPE
0 0 0 0 0 0 1 0 4 4 0 0 0 0 0 0 0 0 0 0 0 0 0 0 0 0 0 0 0 0 0 0 14 160 208 189 162 173
0 0 0 0 0 0 0 0 0 2 2 0 0 0 1 2 0 0 0 0 0 0 0 0 0 0 0 0 0 0 0 0 2 2 43 53 21 126
0 0 0 0 0 0 1 0 1 1 3 0 0 1 0 0 0 0 0 0 2 0 0 0 1 0 0 0 0 0 0 0 0 1 1 2 46 101
0 0 0 0 0 0 0 0 0 0 1 2 0 0 0 0 0 0 0 0 1 0 0 0 2 5 6 2 0 0 0 0 1 2 2 2 0 6
0 0 0 0 0 0 0 0 0 0 0 1 0 0 0 0 0 0 0 0 0 0 0 2 2 3 4 5 6 4 2 6 4 3 2 0 2 2
0 0 1 0 0 0 0 0 0 0 0 0 0 0 0 0 0 0 0 0 1 0 0 0 2 4 4 4 5 5 8 9 10 11 5 2 1 1
0 0 1 0 1 0 0 0 0 0 0 0 0 0 1 2 2 1 2 1 0 1 0 2 2 2 2 3 4 4 5 6 7 7 9 6 3 4
0 0 0 0 0 0 0 0 0 0 1 1 1 2 1 2 2 1 1 0 0 0 0 1 1 1 2 5 6 5 5 3 4 5 6 4 0 1
0 0 0 0 0 0 0 0 0 0 1 0 0 0 0 0 1 0 1 0 0 0 0 1 1 0 1 3 5 6 5 4 4 3 3 3 4 4
0 0 0 0 0 0 0 0 0 0 0 0 0 0 0 0 0 0 0 0 0 0 1 0 0 0 1 1 2 4 2 5 6 4 3 3 1 4
0 0 0 0 0 0 0 0 0 0 0 0 0 0 0 0 0 0 0 0 0 0 0 0 0 0 0 0 1 2 0 1 1 4 6 3 2 2
0 0 0 0 0 0 0 0 0 0 0 0 0 0 0 0 0 0 0 0 0 0 0 0 0 0 0 0 0 0 1 0 0 0 1 3 3 1
0 0 0 1 0 0 0 0 0 0 0 0 0 0 0 0 0 0 0 0 0 0 0 1 0 0 0 0 0 0 0 0 0 0 0 0 2 1
0 0 0 0 0 0 0 0 0 0 0 0 0 0 0 0 0 0 0 0 0 0 0 0 0 0 0 0 0 0 0 0 0 0 0 0 0 0
0 0 0 0 0 0 0 0 0 0 0 0 0 0 0 0 0 0 0 0 0 0 0 0 0 0 0 0 0 0 0 0 0 0 0 0 0 0
0 0 0 0 0 0 0 0 0 0 0 0 0 0 0 0 0 0 0 0 0 0 0 0 0 0 0 0 0 0 0 0 0 0 0 0 0 0
0 0 0 0 0 0 0 0 0 0 0 0 0 0 0 0 0 0 0 0 0 0 0 0 0 0 0 0 0 0 0 0 0 0 0 0 0 0
0 0 0 0 0 0 0 0 0 0 0 0 0 0 0 0 0 0 0 0 0 0 0 0 0 0 0 0 0 0 0 0 0 0 0 1 0 0
0 0 0 0 0 0 0 0 0 0 0 0 0 0 0 0 0 0 0 0 0 0 0 0 0 0 0 0 0 0 0 0 0 0 0 0 0 0
0 0 0 0 0 0 0 0 0 0 0 0 0 0 0 0 0 0 0 0 0 0 0 0 0 0 0 0 0 0 0 0 0 0 0 0 0 0
0 0 0 0 0 0 0 0 0 0 0 0 0 0 0 0 0 0 0 0 0 0 0 0 0 0 0 0 0 0 0 0 0 0 0 0 0 0
0 0 0 0 0 0 0 0 0 0 0 0 0 0 0 0 0 0 0 0 0 0 0 0 0 0 0 0 0 0 0 0 0 0 0 0 0 0
0 0 0 0 0 0 0 0 0 0 0 0 0 0 0 0 0 0 0 0 0 0 0 0 0 0 0 0 0 0 0 0 0 0 0 0 0 0
CIN
-0 -0 -0 -0 -0 -0 -0 -0 -0 -0 -0 -0 -0 -0 -0 -0 -0 -0 -0 -0 -0 -0 -0 -0 -0 -0 -0 -0 -0 -0 -0 -0 -13 -11 -12 -17 -15 -32
-0 -0 -0 -0 -0 -0 -0 -0 -0 -0 -0 -0 -0 -0 -0 -0 -0 -0 -0 -0 -0 -0 -0 -0 -0 -0 -0 -0 -0 -0 -0 -0 -0 -0 -42 -26 -4 -4
-0 -0 -0 -0 -0 -0 -0 -0 -0 -0 -0 -0 -0 -0 -0 -0 -0 -0 -0 -0 -1 -0 -0 -0 -0 -0 -0 -0 -0 -0 -0 -0 -0 -0 -0 -3 -7 -0
-0 -0 -0 -0 -0 -0 -0 -0 -0 -0 -0 -0 -0 -0 -0 -0 -0 -0 -0 -0 -0 -0 -0 -0 -0 -0 -0 -0 -0 -0 -0 -0 -0 -0 -0 -0 -3 -46
-0 -0 -0 -0 -0 -0 -0 -0 -0 -0 -0 -0 -0 -0 -0 -0 -0 -0 -0 -0 -0 -0 -0 -0 -0 -0 -0 -0 -0 -0 -0 -0 -0 -0 -0 -0 -0 -0
-0 -0 -0 -0 -0 -0 -0 -0 -0 -0 -0 -0 -0 -0 -0 -0 -0 -0 -0 -0 -0 -0 -0 -0 -0 -0 -0 -0 -0 -0 -0 -0 -0 -0 -0 -0 -0 -0
-0 -0 -0 -0 -0 -0 -0 -0 -0 -0 -0 -0 -0 -0 -0 -0 -0 -0 -0 -0 -0 -0 -0 -0 -0 -0 -0 -0 -0 -0 -0 -0 -0 -0 -0 -0 -0 -0
-0 -0 -0 -0 -0 -0 -0 -0 -0 -0 -0 -0 -0 -0 -0 -0 -0 -0 -0 -0 -0 -0 -0 -0 -0 -0 -0 -0 -0 -0 -0 -0 -0 -0 -0 -0 -0 -0
-0 -0 -0 -0 -0 -0 -0 -0 -0 -0 -0 -0 -0 -0 -0 -0 -0 -0 -0 -0 -0 -0 -0 -0 -0 -0 -0 -0 -0 -0 -0 -0 -0 -0 -0 -0 -0 -0
-0 -0 -0 -0 -0 -0 -0 -0 -0 -0 -0 -0 -0 -0 -0 -0 -0 -0 -0 -0 -0 -0 -0 -0 -0 -0 -0 -0 -0 -0 -0 -0 -0 -0 -0 -0 -0 -0
-0 -0 -0 -0 -1 -0 -0 -0 -0 -0 -0 -0 -0 -0 -0 -0 -0 -0 -0 -0 -0 -0 -0 -0 -0 -0 -0 -0 -0 -0 -0 -0 -0 -0 -0 -0 -0 -0
-0 -0 -1 -0 -0 -0 -0 -0 -0 -0 -0 -0 -0 -0 -0 -0 -0 -0 -0 -0 -0 -0 -0 -0 -0 -0 -0 -0 -0 -0 -0 -0 -0 -0 -0 -0 -0 -0
-0 -0 -0 -0 -0 -0 -0 -0 -0 -0 -0 -0 -0 -0 -0 -0 -0 -0 -0 -0 -0 -0 -0 -0 -0 -0 -0 -0 -0 -0 -0 -0 -0 -0 -0 -0 -0 -0
-0 -0 -0 -0 -0 -0 -0 -0 -0 -0 -0 -0 -0 -0 -0 -0 -0 -0 -0 -0 -0 -0 -0 -0 -0 -0 -0 -0 -0 -0 -0 -0 -0 -0 -0 -0 -0 -0
-0 -0 -0 -0 -0 -0 -0 -0 -0 -0 -0 -0 -0 -0 -0 -0 -0 -0 -0 -0 -0 -0 -0 -0 -0 -0 -0 -0 -0 -0 -0 -0 -0 -0 -0 -0 -0 -0
-0 -0 -0 -0 -0 -0 -0 -0 -0 -0 -0 -0 -0 -0 -0 -0 -0 -0 -0 -0 -0 -0 -0 -0 -0 -0 -0 -0 -0 -0 -0 -0 -0 -0 -0 -0 -0 -0
-0 -0 -0 -0 -0 -0 -0 -0 -0 -0 -0 -0 -0 -0 -0 -0 -0 -0 -0 -0 -0 -0 -0 -0 -0 -0 -0 -0 -0 -0 -0 -0 -0 -0 -0 -0 -0 -0
-0 -0 -0 -0 -0 -0 -0 -0 -0 -0 -0 -0 -0 -0 -0 -0 -0 -0 -0 -0 -0 -0 -0 -0 -0 -0 -0 -0 -0 -0 -0 -0 -0 -0 -0 -0 -0 -0
-0 -0 -0 -0 -0 -0 -0 -0 -0 -0 -0 -0 -0 -0 -0 -0 -0 -0 -0 -0 -0 -0 -0 -0 -0 -0 -0 -0 -0 -0 -0 -0 -0 -0 -0 -0 -0 -0
-0 -0 -0 -0 -0 -0 -0 -0 -0 -0 -0 -0 -0 -0 -0 -0 -0 -0 -0 -0 -0 -0 -0 -0 -0 -0 -0 -0 -0 -0 -0 -0 -0 -0 -0 -0 -0 -0
-0 -0 -0 -0 -0 -0 -0 -0 -0 -0 -0 -0 -0 -0 -0 -0 -0 -0 -0 -0 -0 -0 -0 -0 -0 -0 -0 -0 -0 -0 -0 -0 -0 -0 -0 -0 -0 -0
-0 -0 -0 -0 -0 -0 -0 -0 -0 -0 -0 -0 -0 -0 -0 -0 -0 -0 -0 -0 -0 -0 -0 -0 -0 -0 -0 -0 -0 -0 -0 -0 -0 -0 -0 -0 -0 -0
-0 -0 -0 -0 -0 -0 -0 -0 -0 -0 -0 -0 -0 -0 -0 -0 -0 -0 -0 -0 -0 -0 -0 -0 -0 -0 -0 -0 -0 -0 -0 -0 -0 -0 -0 -0 -0 -0
Wind_Speed
27 28 27 28 29 29 29 29 33 36 40 36 40 40 44 45 48 50 50 49 49 48 47 47 46 46 46 45 44 43 44 45 46 44 40 39 37 35
27 27 28 28 28 29 29 30 30 32 36 38 40 42 42 43 44 45 46 48 45 45 44 43 46 47 48 48 46 45 44 45 46 47 48 52 39 42
27 28 28 28 28 28 28 30 31 32 35 39 38 39 40 41 42 41 41 40 35 37 37 39 40 43 46 47 46 45 45 45 46 47 48 50 50 45
27 28 29 28 29 28 28 30 32 32 34 38 37 37 38 38 39 38 37 36 36 35 37 36 35 34 35 37 39 40 42 44 43 45 47 47 47 48
27 28 29 29 29 29 28 29 31 32 33 34 36 36 36 37 36 33 33 34 32 32 32 30 30 30 30 31 32 34 35 34 36 37 39 42 45 47
26 27 28 29 28 29 28 29 31 31 32 33 35 35 35 37 33 32 32 30 29 28 28 27 27 26 26 27 27 28 29 31 31 32 33 36 39 42
27 27 28 29 27 27 27 28 30 31 32 33 34 35 36 37 35 32 30 29 21 25 26 25 24 24 24 25 25 26 27 28 29 31 32 35 37 38
28 28 27 28 27 26 26 27 28 30 31 32 32 34 35 36 36 32 28 23 23 26 25 22 22 22 22 23 24 24 25 26 28 30 32 35 36 37
27 28 27 27 27 26 26 26 27 28 29 30 31 33 34 36 34 32 28 23 20 25 22 23 23 20 21 23 24 25 25 26 28 29 31 34 33 33
27 27 27 27 26 26 26 25 26 26 28 28 29 31 31 32 32 30 28 22 18 22 23 22 24 22 20 22 24 25 26 26 27 28 30 31 32 32
26 26 26 26 26 26 25 25 25 25 26 27 27 29 30 31 30 28 28 26 21 22 26 22 25 25 21 23 25 27 27 28 28 28 29 29 30 30
25 25 26 26 26 26 25 24 24 25 24 25 25 27 29 29 31 32 29 27 24 22 27 24 25 23 23 23 26 28 28 31 30 30 31 31 32 30
24 25 25 25 26 26 25 24 24 24 24 25 26 27 29 30 31 31 30 31 28 25 27 25 25 24 22 25 25 30 29 30 31 31 33 33 33 31
24 24 24 24 25 25 25 24 25 24 25 26 27 28 29 30 31 31 31 30 30 29 30 28 25 26 26 26 27 31 30 29 32 33 33 33 32 32
23 23 24 24 24 24 25 25 25 26 27 28 29 29 30 31 31 31 31 30 30 32 32 31 28 28 26 27 29 32 32 30 34 34 34 33 33 33
22 23 23 23 24 24 25 26 27 27 28 29 29 30 30 31 32 33 32 33 31 33 33 34 31 29 29 28 31 33 33 32 37 36 36 34 32 31
21 22 23 24 25 26 26 27 28 28 29 30 30 31 31 32 32 33 33 33 33 35 36 36 35 30 28 30 32 34 35 36 37 38 37 36 34 33
21 22 24 25 25 26 27 28 28 29 30 30 31 31 32 32 33 33 33 33 34 35 36 37 37 34 32 31 33 36 37 38 39 38 37 36 36 36
20 22 23 24 25 26 27 28 29 29 29 29 30 31 32 32 33 33 34 34 35 35 36 37 37 37 38 39 35 36 39 39 40 40 39 38 38 40
20 21 22 23 24 25 26 27 28 29 29 30 30 31 32 32 33 34 34 35 35 35 36 37 38 38 38 39 38 40 40 40 41 41 40 39 39 38
19 20 21 22 23 24 25 26 27 28 29 29 30 31 32 32 32 33 34 34 35 36 37 38 38 37 35 36 37 41 41 41 40 41 40 41 42 40
18 18 19 21 22 24 25 26 27 28 29 30 31 31 32 32 32 33 34 35 35 35 36 36 37 37 37 39 40 42 42 42 41 38 35 39 42 42
17 17 18 20 21 23 25 26 26 27 28 30 31 31 32 33 32 32 33 34 34 35 36 37 37 37 38 39 40 42 42 43 43 41 40 41 41 40
Wind_Direction
353 352 350 347 340 334 332 327 317 308 302 302 299 298 295 291 287 283 282 281 281 281 279 278 278 276 277 277 277 276 273 270 270 266 262 257 251 242
349 347 343 343 340 340 338 335 329 319 310 310 305 301 299 297 292 287 284 280 280 280 280 280 279 277 275 275 275 275 275 273 271 269 267 266 261 253
343 340 339 339 337 338 340 339 333 330 320 314 310 307 304 301 295 290 285 285 282 283 285 285 285 280 277 274 274 274 275 275 273 271 271 270 267 267
341 338 335 335 336 338 340 336 336 333 326 321 319 315 313 309 301 293 288 285 284 283 285 286 289 289 286 281 277 277 278 276 276 273 272 271 269 268
340 339 337 334 333 335 339 338 337 334 334 332 326 325 322 319 308 301 294 288 286 287 287 289 290 294 294 291 287 283 282 283 279 278 277 275 274 272
343 340 340 336 334 335 338 341 338 336 335 336 335 331 329 328 323 310 299 295 288 290 286 291 294 297 299 298 297 291 287 286 284 283 285 284 281 279
344 340 342 341 338 339 339 341 341 341 341 338 339 339 337 335 331 320 308 296 287 298 287 296 296 297 303 306 303 301 295 294 291 290 289 289 285 285
346 342 340 341 339 339 340 342 346 346 347 343 339 340 340 338 337 330 321 310 293 303 288 295 299 303 306 312 313 310 305 301 298 297 294 293 291 288
346 342 337 337 339 337 338 340 345 345 353 355 350 355 348 345 340 341 328 316 315 313 293 289 297 301 315 316 315 317 314 309 304 303 299 297 296 296
347 340 335 333 337 335 337 336 341 340 342 350 351 352 347 346 346 345 338 330 330 331 323 295 300 293 308 319 324 320 319 315 312 311 307 304 300 297
342 338 340 335 336 336 336 335 335 337 341 346 351 351 353 349 346 343 345 346 334 335 334 310 307 293 302 320 319 321 324 321 317 313 313 311 307 302
348 340 337 341 338 341 337 334 332 331 332 335 341 346 348 349 354 3 352 347 340 328 332 327 323 315 300 312 321 318 317 318 315 316 312 313 313 305
352 346 340 343 347 347 344 339 338 335 338 343 344 346 350 352 353 355 358 7 355 344 325 328 330 329 322 311 313 324 320 324 320 317 314 313 311 310
353 345 344 348 349 351 351 349 350 346 346 346 347 347 346 347 349 353 357 3 6 358 343 343 341 330 325 322 319 321 321 328 327 322 319 314 312 311
5 358 355 354 354 352 355 353 351 352 352 354 352 350 348 350 353 355 357 1 2 0 355 350 343 339 341 337 327 323 322 315 327 323 321 317 314 313
6 1 357 357 356 356 354 353 354 354 355 356 355 354 354 354 355 354 353 350 351 349 351 351 344 342 341 340 336 328 328 323 320 321 318 318 317 318
11 4 358 355 354 353 353 354 354 355 356 355 355 354 354 353 353 353 353 353 353 347 344 345 345 343 343 341 337 335 329 324 323 321 320 315 314 316
3 4 2 358 358 356 354 353 354 355 356 356 356 356 354 353 352 353 354 353 351 349 348 346 343 342 339 338 341 334 331 328 325 322 321 317 314 313
10 8 6 3 0 359 358 357 357 358 358 358 357 355 354 354 354 353 352 351 350 349 348 346 345 343 334 328 332 338 330 327 324 322 321 317 312 310
4 4 2 2 2 360 359 358 358 357 357 357 355 354 353 353 353 352 351 349 347 347 346 347 345 342 336 331 328 330 333 329 325 321 318 318 316 312
0 2 1 1 0 359 359 358 357 357 356 356 354 353 352 352 350 350 349 348 346 344 342 341 342 341 339 337 332 329 331 332 328 322 320 318 315 313
357 359 359 359 359 358 357 357 356 356 355 354 352 351 350 349 347 345 344 343 343 342 341 342 341 341 339 335 330 328 328 331 333 331 328 324 317 308
356 356 357 357 357 356 356 355 355 354 353 352 351 350 350 347 349 347 345 344 343 341 340 339 339 340 337 335 332 329 328 328 327 327 329 329 327 322